KBAZ

Details ICAO KBAZ
Name NEW BRAUNFELS MUNI
Region United States
Timezone America/Chicago (UTC-5.0)
Plans Departing 12
Arriving 6
Stats Elevation 650 ft / 198 m (AMSL)
Location 29.704493° -98.042224°
Runways 2
Magnetic Variation 3.968° E
Sunrise 2018-05-26 11:35:25 UTC / 2018-05-26 06:35:25 Local
Sunset 2018-05-27 01:25:56 UTC / 2018-05-26 20:25:56 Local
Advertisement - Login to hide

Runways

ID Width Length Bearing (true) Bearing (mag) Surface Threshold Offset Overrun Length
13 100 ft / 30 m 5,356 ft / 1,633 m 135.87° 131.90° Asphalt 0 ft / 0 m 0 ft / 0 m
17 100 ft / 30 m 5,382 ft / 1,640 m 180.71° 176.74° Asphalt 512 ft / 156 m 0 ft / 0 m
31 100 ft / 30 m 5,356 ft / 1,633 m 315.88° 311.91° Asphalt 0 ft / 0 m 0 ft / 0 m
35 100 ft / 30 m 5,382 ft / 1,640 m 0.71° 356.74° Asphalt 0 ft / 0 m 0 ft / 0 m

Map

Weather


0- 5 10 15 20 25 30 35+ Temperature / ° C

Clouds and Precipitation
Forecast for 2018-05-26 12:00 UTC. Updated an hour ago

Ground ~20,000 ft ~40,000 ft Winds

METAR

KBAZ 261151Z 23005KT 10SM CLR 22/21 A2983 RMK AO2 SLP092 T02170206 10250 20200 55013

TAF

Not found

Frequencies

Recorded 119.32 MHz ASOS
Clearance 134.75 MHz CLNC DEL
Departure 125.70 MHz SAN ANTONIO DEP
Unicom 122.70 MHz CTAF/UNICOM
Approach 124.45 MHz SAN ANTONIO APP
Warning: Do not use this data for real-world aviation or navigation. No guarantee of current accuracy is given.